Regional Weather Roundup
Issued by NWS

Home | Current Version | Previous Version | Graphics & Text | Print | Product List | Glossary On
Versions: 1 2 3 4 5 6 7 8 9 10 11 12 13 14 15 16 17 18 19 20 21 22 23 24 25 26 27
000
ASUS45 KCYS 221510
RWRWY

WYOMING REGIONAL WEATHER ROUNDUP
NATIONAL WEATHER SERVICE CHEYENNE WY
900 AM MDT FRI JUL 22 2016

NOTE:  "FAIR" INDICATES FEW OR NO CLOUDS BELOW 12,000 FEET
WITH NO SIGNIFICANT WEATHER AND/OR OBSTRUCTIONS TO VISIBILITY.

WYZ001-221600-
YELLOWSTONE NATIONAL PARK

CITY           SKY/WX    TMP DP  RH WIND       PRES   REMARKS
LK YELLOWSTONE   N/A     65  41  41 VRB3      30.42R
W YELLOWSTONE  NOT AVBL

$$
WYZ002>013-054>058-071-098>099-221600-
NORTHERN WYOMING

CITY           SKY/WX    TMP DP  RH WIND       PRES   REMARKS
JACKSON        SUNNY     64  45  48 CALM      30.33
CODY           FAIR      79  39  24 SW6       30.15S
GREYBULL       FAIR      82  43  25 S3        30.07R
WORLAND        FAIR      78  43  28 N5        30.09R
SHERIDAN       FAIR      77  44  30 CALM      30.05S
BUFFALO        FAIR      92  40  16 SW13      30.11F
GILLETTE       FAIR      87  41  19 S20G28    30.09S
HULETT         FAIR      88  52  29 S12G22    30.11S
NEWCASTLE      FAIR      86  52  30 S12G21    30.13S

$$
WYZ014>020-022>026-101>103-221600-
CENTRAL WYOMING

CITY           SKY/WX    TMP DP  RH WIND       PRES   REMARKS
BIG PINEY      FAIR      66  45  46 E5        30.38F
PINEDALE       FAIR      61  45  55 CALM      30.40F
DUBOIS         FAIR      70  37  30 W7        30.36R HAZE
LANDER         FAIR      72  43  35 NW5       30.23R
RIVERTON       FAIR      72  47  40 W6        30.23R
CASPER         HVY RAIN  65  54  67 SW16      30.23S
DOUGLAS          N/A    N/A N/A N/A MISG      30.21R

$$
WYZ021-027>030-104>119-221600-
SOUTHERN WYOMING

CITY           SKY/WX    TMP DP  RH WIND       PRES   REMARKS
EVANSTON       FAIR      69  43  38 S6        30.36R
KEMMERER         N/A     73  41  31 N5        30.39S
FORT BRIDGER   MOSUNNY   73  43  33 NE6       30.39R
ROCK SPRINGS   FAIR      70  44  39 SW5       30.36R
DIXON          FAIR      67  50  53 CALM      30.41S
RAWLINS        FAIR      70  44  39 VRB3      30.37F
SARATOGA       FAIR      70  48  46 SE13      30.41R
LARAMIE        FAIR      71  49  45 SW8       30.40S
CHEYENNE       FAIR      78  47  33 W6        30.30R
TORRINGTON     FAIR      78  59  51 CALM      30.15R
PINE BLUFFS    FAIR      77  50  38 NW7       30.23R

$$




USA.gov is the U.S. government's official web portal to all federal, state and local government web resources and services.